Location: Bretagne
(43.8474°N, 0.4650°W)
Time: 19:25:14
(UTC+00:00)

Cosmos 1869 Rocket - Pass Details

Date: 15 January 2026
Orbit: 597 x 626 km, 82.5° (Epoch: 13 February)

Event Time Altitude Azimuth Distance (km) Brightness Sun altitude
Rises 18:59:41 0° 346° (NNW) 2,902 7.1 -22.9°
Reaches altitude 10° 19:01:58 10° 342° (NNW) 1,986 6.3 -23.3°
Maximum altitude 19:06:14 51° 266° (W) 771 4.3 -24.1°
Drops below altitude 10° 19:10:25 10° 191° (S) 1,953 6.3 -24.8°
Sets 19:12:39 0° 186° (S) 2,847 7.1 -25.2°
